RYR5AT EIKN-EGPH

Flight info

Callsign RYR5AT
Flight time 0h 53m
Altitude 33000
Route CON DCT OLAPO DCT ROTEV DCT GOTNA DCT BLACA P600 TUNSO
Aircraft B738/M-SDE2E3FGHIRWXY/LB1

Departure

Time 2026-05-07 00:13
Airport Ireland West Airport Knock (EIKN)

Arrival

Time 2026-05-07 01:07
Airport Edinburgh Airport (EGPH)
Time Latitude Longitude Altitude Speed Heading
2026-05-07 00:13 53.90626 -8.85103 2044 ft 152 kts 257°
2026-05-07 00:13 53.90406 -8.86999 2621 ft 173 kts 257°
2026-05-07 00:14 53.90148 -8.89213 2968 ft 207 kts 256°
2026-05-07 00:14 53.89846 -8.91779 3242 ft 235 kts 256°
2026-05-07 00:14 53.89517 -8.94568 3980 ft 244 kts 256°
2026-05-07 00:14 53.89245 -8.97384 5104 ft 244 kts 266°
2026-05-07 00:15 53.89679 -9.00203 6064 ft 257 kts 296°
2026-05-07 00:15 53.90985 -9.02386 6901 ft 275 kts 327°
2026-05-07 00:15 53.92771 -9.03580 7903 ft 278 kts 342°
2026-05-07 00:15 53.94669 -9.04253 8662 ft 279 kts 346°
2026-05-07 00:16 53.96580 -9.04844 9284 ft 281 kts 347°
2026-05-07 00:16 53.98589 -9.04980 9118 ft 297 kts 11°
2026-05-07 00:16 54.00390 -9.03502 9269 ft 289 kts 40°
2026-05-07 00:16 54.01657 -9.00880 9734 ft 288 kts 59°
2026-05-07 00:17 54.02683 -8.97919 10495 ft 293 kts 59°
2026-05-07 00:17 54.03714 -8.94918 11383 ft 294 kts 59°
2026-05-07 00:17 54.04765 -8.91895 12220 ft 299 kts 59°
2026-05-07 00:17 54.05836 -8.88837 13029 ft 303 kts 59°
2026-05-07 00:18 54.06927 -8.85728 13843 ft 307 kts 60°
2026-05-07 00:18 54.07651 -8.82285 14480 ft 315 kts 84°
2026-05-07 00:18 54.07736 -8.78430 14703 ft 338 kts 91°
2026-05-07 00:18 54.07704 -8.74283 14892 ft 361 kts 92°
2026-05-07 00:19 54.07642 -8.69914 15327 ft 374 kts 92°
2026-05-07 00:19 54.07579 -8.65514 16017 ft 378 kts 92°
2026-05-07 00:19 54.07521 -8.61014 16798 ft 381 kts 92°
2026-05-07 00:19 54.07470 -8.56488 17545 ft 384 kts 92°
2026-05-07 00:20 54.07423 -8.51911 18257 ft 388 kts 92°
2026-05-07 00:20 54.07378 -8.47288 18868 ft 392 kts 92°
2026-05-07 00:20 54.07335 -8.42620 19488 ft 396 kts 91°
2026-05-07 00:20 54.07290 -8.37911 20089 ft 400 kts 91°
2026-05-07 00:21 54.07245 -8.33145 20669 ft 404 kts 91°
2026-05-07 00:21 54.07197 -8.28334 21244 ft 408 kts 91°
2026-05-07 00:21 54.07147 -8.23476 21814 ft 412 kts 91°
2026-05-07 00:21 54.07094 -8.18572 22375 ft 416 kts 91°
2026-05-07 00:22 54.07039 -8.13621 22929 ft 421 kts 91°
2026-05-07 00:22 54.06981 -8.08619 23468 ft 425 kts 91°
2026-05-07 00:22 54.06921 -8.03626 23917 ft 428 kts 91°
2026-05-07 00:22 54.06858 -7.98540 24406 ft 431 kts 91°
2026-05-07 00:23 54.06792 -7.93420 24894 ft 433 kts 91°
2026-05-07 00:23 54.06724 -7.88289 25353 ft 435 kts 91°
2026-05-07 00:23 54.06653 -7.83106 25776 ft 439 kts 91°
2026-05-07 00:23 54.06579 -7.77898 26214 ft 441 kts 91°
2026-05-07 00:24 54.06502 -7.72646 26653 ft 444 kts 91°
2026-05-07 00:24 54.06423 -7.67384 27083 ft 446 kts 91°
2026-05-07 00:24 54.06342 -7.62149 27508 ft 449 kts 91°
2026-05-07 00:24 54.06258 -7.56825 27903 ft 451 kts 91°
2026-05-07 00:25 54.06170 -7.51470 28299 ft 454 kts 92°
2026-05-07 00:25 54.06079 -7.46068 28692 ft 456 kts 92°
2026-05-07 00:25 54.05986 -7.40679 29187 ft 456 kts 92°
2026-05-07 00:25 54.05891 -7.35304 29832 ft 452 kts 92°
2026-05-07 00:26 54.05795 -7.29989 30426 ft 448 kts 92°
2026-05-07 00:26 54.05697 -7.24702 30916 ft 446 kts 92°
2026-05-07 00:26 54.05597 -7.19432 31335 ft 445 kts 91°
2026-05-07 00:26 54.05495 -7.14177 31769 ft 444 kts 91°
2026-05-07 00:27 54.05391 -7.08941 32245 ft 441 kts 91°
2026-05-07 00:27 54.05285 -7.03749 32729 ft 439 kts 91°
2026-05-07 00:27 54.05177 -6.98542 32976 ft 441 kts 91°
2026-05-07 00:27 54.05067 -6.93328 32968 ft 441 kts 91°
2026-05-07 00:28 54.04840 -6.82964 32975 ft 435 kts 91°
2026-05-07 00:28 54.04608 -6.72728 32981 ft 430 kts 91°
2026-05-07 00:29 54.04371 -6.62635 32982 ft 429 kts 91°
2026-05-07 00:30 54.03867 -6.42303 32989 ft 431 kts 91°
2026-05-07 00:30 54.03601 -6.32080 33003 ft 434 kts 91°
2026-05-07 00:31 54.03326 -6.21803 32995 ft 436 kts 91°
2026-05-07 00:31 54.03672 -6.11616 32994 ft 431 kts 68°
2026-05-07 00:32 54.05064 -6.07133 32989 ft 428 kts 51°
2026-05-07 00:32 54.07093 -6.03458 32994 ft 425 kts 36°
2026-05-07 00:32 54.09564 -6.00876 33014 ft 422 kts 25°
2026-05-07 00:32 54.12204 -5.98699 32984 ft 423 kts 23°
2026-05-07 00:33 54.17555 -5.94479 32982 ft 424 kts 23°
2026-05-07 00:33 54.22914 -5.90182 32993 ft 425 kts 23°
2026-05-07 00:34 54.28262 -5.85801 32993 ft 426 kts 24°
2026-05-07 00:34 54.33607 -5.81383 32985 ft 426 kts 24°
2026-05-07 00:35 54.38957 -5.76947 32978 ft 427 kts 24°
2026-05-07 00:35 54.44269 -5.72532 32980 ft 426 kts 24°
2026-05-07 00:36 54.49611 -5.68080 32976 ft 426 kts 24°
2026-05-07 00:36 54.54950 -5.63617 32976 ft 426 kts 24°
2026-05-07 00:37 54.60192 -5.58813 32984 ft 429 kts 33°
2026-05-07 00:37 54.64733 -5.52131 32644 ft 428 kts 39°
2026-05-07 00:38 54.66920 -5.48719 32324 ft 420 kts 39°
2026-05-07 00:38 54.69081 -5.45360 31928 ft 416 kts 39°
2026-05-07 00:38 54.71229 -5.42047 31519 ft 413 kts 39°
2026-05-07 00:38 54.73372 -5.38764 31125 ft 410 kts 38°
2026-05-07 00:39 54.75504 -5.35508 30731 ft 407 kts 38°
2026-05-07 00:39 54.77592 -5.32320 30345 ft 405 kts 38°
2026-05-07 00:39 54.79700 -5.29099 29936 ft 402 kts 38°
2026-05-07 00:39 54.81792 -5.25898 29484 ft 400 kts 38°
2026-05-07 00:40 54.83864 -5.22722 29082 ft 396 kts 38°
2026-05-07 00:40 54.85925 -5.19557 28667 ft 393 kts 38°
2026-05-07 00:40 54.87984 -5.16497 28274 ft 388 kts 33°
2026-05-07 00:40 54.90250 -5.14039 27890 ft 380 kts 23°
2026-05-07 00:41 54.92612 -5.12010 27497 ft 377 kts 21°
2026-05-07 00:41 54.94971 -5.10032 27087 ft 375 kts 21°
2026-05-07 00:41 54.97306 -5.08063 26701 ft 373 kts 22°
2026-05-07 00:41 54.99631 -5.06078 26326 ft 371 kts 22°
2026-05-07 00:42 55.01940 -5.04085 25958 ft 369 kts 22°
2026-05-07 00:42 55.04223 -5.02102 25592 ft 366 kts 22°
2026-05-07 00:42 55.06503 -5.00116 25228 ft 365 kts 22°
2026-05-07 00:42 55.08767 -4.98140 24862 ft 363 kts 22°
2026-05-07 00:43 55.10837 -4.95590 24459 ft 371 kts 44°
2026-05-07 00:43 55.12272 -4.91856 24181 ft 372 kts 62°
2026-05-07 00:43 55.13340 -4.87739 23835 ft 371 kts 64°
2026-05-07 00:43 55.14348 -4.83594 23450 ft 371 kts 64°
2026-05-07 00:44 55.15329 -4.79495 23036 ft 370 kts 65°
2026-05-07 00:44 55.16323 -4.75353 22652 ft 367 kts 65°
2026-05-07 00:44 55.17316 -4.71250 22288 ft 364 kts 64°
2026-05-07 00:44 55.18308 -4.67178 21919 ft 363 kts 64°
2026-05-07 00:45 55.19298 -4.63135 21554 ft 361 kts 64°
2026-05-07 00:45 55.20289 -4.59094 21187 ft 360 kts 64°
2026-05-07 00:45 55.21275 -4.55077 20830 ft 358 kts 65°
2026-05-07 00:45 55.22256 -4.51076 20471 ft 356 kts 65°
2026-05-07 00:46 55.23229 -4.47106 20124 ft 355 kts 65°
2026-05-07 00:46 55.24199 -4.43141 19770 ft 353 kts 65°
2026-05-07 00:46 55.25164 -4.39186 19424 ft 352 kts 65°
2026-05-07 00:46 55.26122 -4.35256 19082 ft 350 kts 65°
2026-05-07 00:47 55.27077 -4.31332 18732 ft 349 kts 65°
2026-05-07 00:47 55.28026 -4.27424 18382 ft 348 kts 65°
2026-05-07 00:47 55.28971 -4.23527 17999 ft 346 kts 66°
2026-05-07 00:47 55.29910 -4.19645 17616 ft 345 kts 66°
2026-05-07 00:48 55.30843 -4.15784 17265 ft 343 kts 66°
2026-05-07 00:48 55.31769 -4.11943 16923 ft 340 kts 66°
2026-05-07 00:48 55.32687 -4.08126 16572 ft 338 kts 66°
2026-05-07 00:48 55.33597 -4.04338 16237 ft 335 kts 66°
2026-05-07 00:49 55.34489 -4.00620 15893 ft 333 kts 66°
2026-05-07 00:49 55.35384 -3.96883 15570 ft 331 kts 66°
2026-05-07 00:49 55.36274 -3.93158 15234 ft 329 kts 66°
2026-05-07 00:49 55.37156 -3.89462 14908 ft 327 kts 66°
2026-05-07 00:50 55.38033 -3.85783 14567 ft 326 kts 66°
2026-05-07 00:50 55.38904 -3.82120 14248 ft 324 kts 66°
2026-05-07 00:50 55.39772 -3.78462 13912 ft 323 kts 66°
2026-05-07 00:50 55.40634 -3.74826 13555 ft 321 kts 66°
2026-05-07 00:51 55.41489 -3.71212 13190 ft 320 kts 66°
2026-05-07 00:51 55.42341 -3.67607 12845 ft 317 kts 66°
2026-05-07 00:51 55.43184 -3.64029 12508 ft 315 kts 66°
2026-05-07 00:51 55.44022 -3.60470 12181 ft 313 kts 67°
2026-05-07 00:52 55.44852 -3.56938 11836 ft 312 kts 67°
2026-05-07 00:52 55.45676 -3.53425 11536 ft 309 kts 67°
2026-05-07 00:52 55.46495 -3.49932 11203 ft 308 kts 67°
2026-05-07 00:52 55.47309 -3.46455 10886 ft 306 kts 67°
2026-05-07 00:53 55.48106 -3.43046 10586 ft 304 kts 67°
2026-05-07 00:53 55.48908 -3.39605 10349 ft 300 kts 68°
2026-05-07 00:53 55.49778 -3.36327 10199 ft 292 kts 54°
2026-05-07 00:53 55.51217 -3.33927 10082 ft 281 kts 32°
2026-05-07 00:54 55.52881 -3.32195 9877 ft 276 kts 27°
2026-05-07 00:54 55.54574 -3.30578 9581 ft 275 kts 26°
2026-05-07 00:54 55.56258 -3.28980 9289 ft 274 kts 26°
2026-05-07 00:54 55.57925 -3.27386 9029 ft 271 kts 27°
2026-05-07 00:55 55.59040 -3.26309 8839 ft 270 kts 27°
2026-05-07 00:55 55.60660 -3.24736 8572 ft 268 kts 27°
2026-05-07 00:55 55.62286 -3.23148 8308 ft 266 kts 27°
2026-05-07 00:55 55.63898 -3.21568 8032 ft 265 kts 28°
2026-05-07 00:56 55.65508 -3.19986 7759 ft 263 kts 28°
2026-05-07 00:56 55.67101 -3.18418 7502 ft 262 kts 28°
2026-05-07 00:56 55.68687 -3.16853 7236 ft 261 kts 28°
2026-05-07 00:56 55.70265 -3.15295 7129 ft 260 kts 28°
2026-05-07 00:57 55.71871 -3.13819 7017 ft 259 kts 19°
2026-05-07 00:57 55.73615 -3.13170 6806 ft 256 kts
2026-05-07 00:57 55.75379 -3.12780 6601 ft 256 kts
2026-05-07 00:57 55.77150 -3.12386 6400 ft 257 kts
2026-05-07 00:58 55.78924 -3.11979 6184 ft 257 kts
2026-05-07 00:58 55.80671 -3.11566 5972 ft 256 kts
2026-05-07 00:58 55.82429 -3.11141 5772 ft 253 kts
2026-05-07 00:58 55.84141 -3.10721 5602 ft 243 kts
2026-05-07 00:59 55.87338 -3.09926 5209 ft 221 kts
2026-05-07 00:59 55.88832 -3.09551 5024 ft 211 kts
2026-05-07 00:59 55.90252 -3.09194 4859 ft 201 kts
2026-05-07 01:00 55.91613 -3.08852 4705 ft 195 kts
2026-05-07 01:00 55.92949 -3.08516 4575 ft 194 kts
2026-05-07 01:00 55.94290 -3.08178 4407 ft 193 kts
2026-05-07 01:00 55.95620 -3.07843 4016 ft 194 kts
2026-05-07 01:01 55.96967 -3.07503 3594 ft 197 kts
2026-05-07 01:01 55.98256 -3.06719 3174 ft 201 kts 38°
2026-05-07 01:01 55.99306 -3.05057 3074 ft 204 kts 40°
2026-05-07 01:01 56.00396 -3.03429 3019 ft 205 kts 39°
2026-05-07 01:02 56.01576 -3.02079 2966 ft 200 kts 11°
2026-05-07 01:02 56.02860 -3.02378 3021 ft 189 kts 332°
2026-05-07 01:02 56.04067 -3.03379 3002 ft 193 kts 328°
2026-05-07 01:02 56.04924 -3.05070 2992 ft 185 kts 281°
2026-05-07 01:03 56.04896 -3.07339 2984 ft 185 kts 247°
2026-05-07 01:03 56.04334 -3.09401 3003 ft 187 kts 242°
2026-05-07 01:03 56.03728 -3.11454 2997 ft 186 kts 239°
2026-05-07 01:03 56.03074 -3.13455 2962 ft 187 kts 238°
2026-05-07 01:04 56.02397 -3.15453 2778 ft 188 kts 237°
2026-05-07 01:04 56.01727 -3.17421 2537 ft 183 kts 237°
2026-05-07 01:04 56.01072 -3.19347 2278 ft 180 kts 237°
2026-05-07 01:04 56.00427 -3.21245 2041 ft 173 kts 237°
2026-05-07 01:05 55.99826 -3.23015 1787 ft 160 kts 236°
2026-05-07 01:05 55.99258 -3.24686 1572 ft 157 kts 236°
2026-05-07 01:05 55.98713 -3.26290 1355 ft 146 kts 236°
2026-05-07 01:05 55.98201 -3.27799 1173 ft 141 kts 236°
2026-05-07 01:06 55.97692 -3.29298 956 ft 141 kts 236°
2026-05-07 01:06 55.97170 -3.30834 789 ft 149 kts 238°
2026-05-07 01:06 55.96629 -3.32435 578 ft 153 kts 238°
2026-05-07 01:06 55.96073 -3.34082 367 ft 158 kts 239°
2026-05-07 01:07 55.95515 -3.35728 154 ft 149 kts 238°
2026-05-07 01:07 55.95015 -3.37201 110 ft 118 kts 239°
2026-05-07 01:07 55.94736 -3.38024 113 ft 16 kts 238°
2026-05-07 01:07 55.94645 -3.38007 114 ft 16 kts 149°
2026-05-07 01:08 55.94600 -3.37858 113 ft 16 kts 62°
2026-05-07 01:08 55.94669 -3.37653 113 ft 20 kts 59°
2026-05-07 01:08 55.94744 -3.37432 115 ft 21 kts 58°
2026-05-07 01:08 55.94818 -3.37214 114 ft 20 kts 59°
2026-05-07 01:09 55.94887 -3.37012 115 ft 18 kts 59°
2026-05-07 01:09 55.94927 -3.36859 113 ft 11 kts 99°
2026-05-07 01:09 55.94868 -3.36778 115 ft 12 kts 174°
2026-05-07 01:09 55.94790 -3.36774 115 ft 11 kts 172°
2026-05-07 01:10 55.94716 -3.36734 114 ft 11 kts 178°
2026-05-07 01:10 55.94639 -3.36733 115 ft 11 kts 179°
2026-05-07 01:10 55.94586 -3.36732 115 ft 2 kts 179°
2026-05-07 01:10 55.94573 -3.36724 115 ft 2 kts 141°
2026-05-07 01:11 55.94571 -3.36693 114 ft 4 kts 90°
2026-05-07 01:11 55.94571 -3.36647 115 ft 2 kts 89°
2026-05-07 01:11 55.94571 -3.36631 115 ft 1 kts 89°
2026-05-07 01:11 55.94571 -3.36626 115 ft 0 kts 89°
2026-05-07 01:12 55.94571 -3.36624 115 ft 0 kts 89°